Wind_Speed
18 18 18 17 18 15 13 12 13 13 13 13 12 11 10 10 9 9 9 9 8 8 8 8 9 9 10 11 11 11 11 12 12 14 14 14 14 14 13 13 13 13 13 13 13 13 13 13 13
18 18 17 18 17 14 13 13 13 13 13 12 11 11 10 10 10 9 9 9 9 9 8 9 9 9 10 12 12 11 12 12 12 13 14 14 14 13 13 13 14 13 13 13 14 14 13 13 12
18 18 18 19 16 14 13 13 13 13 13 12 12 11 11 10 10 10 9 10 9 8 8 9 9 9 10 11 12 12 12 13 13 13 14 13 14 13 13 13 13 13 13 13 14 14 14 13 12
18 18 19 18 16 16 15 15 14 15 14 13 12 12 12 11 10 10 10 10 9 8 8 9 9 9 10 11 13 13 13 13 13 13 14 14 14 14 14 14 13 13 13 13 14 14 14 13 13
18 20 19 17 17 17 17 16 15 16 15 14 13 13 13 12 11 10 11 10 10 9 8 9 9 9 10 11 12 13 13 13 13 13 13 13 14 15 14 14 14 13 14 14 14 14 13 13 13
18 18 16 17 18 18 18 17 17 17 16 15 14 14 13 12 11 11 11 10 9 9 9 9 9 9 10 10 11 12 12 13 13 13 12 12 13 14 14 14 13 13 14 13 14 14 13 12 11
17 17 16 17 18 19 19 18 18 18 17 16 15 15 14 13 12 11 11 10 9 9 9 9 9 9 9 10 10 11 11 12 12 12 12 12 12 12 13 13 13 13 12 12 12 12 12 11 10
15 16 16 17 18 19 19 19 19 18 17 16 16 16 15 14 13 12 11 10 9 9 9 9 8 9 9 9 9 10 10 11 11 11 11 11 12 12 12 12 12 11 11 11 11 10 10 10 9
15 15 14 16 18 18 19 19 19 19 18 17 17 16 15 14 13 12 11 11 10 9 9 9 8 8 8 8 9 9 9 10 9 9 10 10 10 10 11 11 11 11 10 10 10 10 9 9 8
14 13 13 15 17 18 19 19 19 19 19 18 17 16 15 14 13 12 12 11 10 10 9 8 8 8 7 8 8 8 7 8 8 8 8 8 9 9 9 10 10 10 9 9 9 8 8 7 7
12 11 13 14 15 17 18 19 18 19 18 17 17 17 16 14 13 12 12 11 11 10 9 8 8 8 8 7 7 7 7 7 6 7 7 8 8 7 8 8 8 8 7 7 7 7 7 6 5
11 11 12 13 14 16 17 18 18 18 18 17 17 17 17 15 14 14 13 12 10 10 9 8 8 8 7 7 6 6 6 5 5 6 6 6 6 6 6 7 6 6 5 5 5 5 5 4 4
10 10 11 11 13 14 16 17 18 18 18 17 16 16 16 16 15 14 13 12 11 10 9 9 8 7 7 6 6 6 5 5 4 4 5 5 5 5 5 5 5 5 4 4 4 3 3 3 2
8 8 9 10 11 12 14 16 17 17 17 16 16 16 16 16 15 14 13 12 11 10 9 9 8 7 7 7 6 6 5 5 4 4 4 4 4 4 4 4 4 3 3 3 3 3 2 1 0
6 6 7 8 9 11 12 14 15 16 16 15 15 15 15 15 14 13 13 12 11 10 9 9 8 8 7 7 6 5 5 5 4 4 3 3 3 4 4 3 3 3 3 3 2 2 1 1 1
4 4 5 5 7 9 11 12 12 13 14 15 14 14 14 14 13 12 12 12 11 10 9 9 8 8 8 7 6 6 5 4 4 3 3 2 2 2 3 3 3 3 3 3 3 2 2 3 2
1 2 2 3 5 6 8 9 10 11 12 13 14 13 13 13 13 12 11 11 11 10 10 9 9 9 8 7 6 6 5 4 4 3 2 2 1 1 2 2 2 3 3 3 4 4 4 4 4
4 3 2 1 3 4 6 7 8 9 10 12 12 13 12 12 12 12 11 11 11 10 10 10 9 9 8 7 6 6 5 4 4 3 2 1 1 0 1 2 2 3 3 4 4 4 4 4 5
7 5 3 1 1 2 4 5 6 7 8 10 11 11 12 12 12 11 11 11 11 10 10 10 10 9 9 7 7 6 5 5 3 3 2 2 1 1 1 2 2 3 4 4 5 5 5 5 6
8 6 4 3 1 1 2 3 3 5 6 7 9 10 11 11 11 11 10 11 11 11 11 10 10 10 9 8 7 6 5 5 4 3 3 2 2 2 2 2 3 4 4 5 6 6 6 7 7
10 8 7 4 3 2 0 2 2 3 4 5 7 9 9 9 10 10 10 10 11 11 11 11 11 10 10 8 7 7 6 5 5 4 3 3 2 3 3 4 4 4 5 6 7 7 7 8 9
12 10 9 7 4 3 2 2 3 3 3 4 6 7 8 8 9 9 9 9 10 11 11 11 11 11 10 9 8 8 8 7 6 5 4 4 4 4 4 4 5 6 6 7 8 8 9 9 10
15 13 11 10 8 5 4 2 4 4 4 4 5 6 6 7 7 8 8 8 9 10 10 11 11 11 11 10 9 8 8 7 7 6 5 4 4 4 4 5 6 6 7 7 8 9 9 9 10
17 15 14 13 10 10 8 5 4 5 4 5 5 5 5 5 6 7 7 8 8 9 9 10 10 10 10 10 9 9 9 8 8 7 6 5 5 5 5 6 6 7 7 7 8 9 9 10 11
20 17 15 13 13 12 11 8 7 6 5 5 5 5 4 5 5 5 7 7 7 8 8 9 10 10 10 10 10 10 10 9 9 8 7 7 6 6 6 7 7 8 8 9 9 10 10 11 11
23 20 17 15 14 13 13 11 9 8 8 7 6 5 4 4 4 5 6 6 7 7 8 9 10 10 10 10 10 10 10 10 9 9 8 8 7 7 7 7 8 8 9 9 10 11 11 11 12
26 23 20 18 16 14 13 12 10 10 10 9 8 7 5 5 5 6 6 6 6 7 7 9 9 10 10 10 10 10 11 11 10 10 10 9 9 8 8 8 8 9 9 10 11 11 11 12 12
28 26 23 20 18 16 15 13 11 12 11 10 9 9 8 7 7 7 7 7 7 7 7 8 9 9 10 10 11 11 12 11 11 11 11 11 10 10 10 10 10 10 10 10 11 11 12 13 13
30 29 26 23 21 18 16 15 15 13 13 12 11 10 10 9 9 9 9 8 8 7 8 8 8 9 10 11 11 12 12 12 12 13 13 12 12 11 11 10 11 11 11 11 11 12 12 13 14
31 30 29 26 25 23 19 18 17 15 14 14 12 12 11 11 10 10 10 10 10 9 9 8 9 9 10 11 12 12 12 12 13 14 14 13 13 13 13 12 12 12 11 11 11 12 12 12 13
Wind_Direction
60 60 61 64 66 66 69 72 72 72 70 71 72 74 77 77 77 78 79 79 80 79 80 82 86 91 91 91 97 95 93 93 96 98 99 100 100 104 107 108 107 108 112 116 117 118 119 116 115
61 60 61 61 64 63 67 69 69 69 68 68 69 71 73 72 74 74 78 78 80 80 79 81 86 92 90 93 98 97 94 96 98 99 99 100 102 102 105 109 112 112 112 112 115 118 120 119 117
61 61 60 61 62 64 66 68 68 67 66 65 66 68 69 67 70 74 79 79 80 80 82 83 86 92 93 95 99 99 98 99 100 102 100 99 101 104 108 116 115 115 114 113 115 118 118 116 114
63 63 60 61 61 62 63 65 67 67 65 64 66 68 68 68 69 74 77 80 81 83 86 87 86 92 93 96 99 99 100 101 102 104 103 101 100 103 113 115 113 114 114 111 114 115 115 112 112
63 62 59 60 61 61 62 64 66 67 66 65 66 68 68 68 69 71 76 80 82 84 87 90 88 89 92 96 97 100 103 104 103 103 104 103 103 106 113 111 112 112 112 110 113 113 111 111 112
66 65 63 60 61 61 62 64 65 67 65 65 66 68 68 68 68 71 75 79 84 86 88 90 91 90 92 96 99 98 101 103 105 106 105 104 102 102 106 110 110 111 111 113 112 109 110 111 111
71 70 66 62 60 60 61 63 64 65 64 63 65 68 68 68 68 70 73 76 81 85 88 89 91 92 92 94 99 100 99 100 102 103 103 102 104 105 107 110 110 109 108 111 112 108 108 106 108
72 68 64 62 61 60 61 62 63 63 62 63 65 66 66 67 67 68 70 75 78 80 84 87 90 93 92 92 92 96 99 97 95 97 100 104 105 106 108 109 110 111 108 109 110 109 108 107 108
73 70 66 64 63 61 62 62 62 62 61 62 64 64 65 65 66 66 69 73 76 79 84 87 88 90 92 93 94 93 96 97 97 98 102 105 107 108 111 112 112 112 111 110 110 109 108 105 105
75 74 69 67 65 64 63 62 61 60 58 59 61 62 63 63 64 66 67 69 73 76 81 84 84 87 90 92 92 94 97 101 102 105 108 111 110 109 114 118 116 114 113 113 110 110 107 103 104
76 77 72 68 65 65 63 61 61 60 59 58 60 60 61 61 61 63 64 67 71 72 76 79 81 83 87 88 88 92 98 102 104 109 115 116 115 114 117 123 122 120 117 113 110 108 105 104 107
77 76 72 67 65 65 64 62 60 60 58 59 60 59 58 59 61 62 63 65 68 69 73 76 78 80 82 81 82 86 93 100 100 107 118 124 123 124 126 126 127 129 127 123 121 115 107 108 104
82 78 72 67 64 63 64 62 59 58 57 58 60 58 57 57 59 60 61 63 64 65 69 73 75 75 75 79 83 84 90 98 100 107 119 129 135 136 141 136 134 134 132 129 127 129 119 110 104
88 78 71 66 64 61 61 61 58 56 55 54 56 56 54 54 56 55 56 58 59 61 63 67 70 68 70 73 82 85 85 92 101 106 112 123 136 144 149 151 152 148 143 139 139 137 128 120 114
98 84 70 64 63 60 60 57 55 55 54 53 52 50 50 50 51 52 52 53 54 57 60 64 67 66 67 67 72 79 81 87 91 99 107 115 129 146 157 164 177 177 174 174 175 176 183 261 272
115 89 70 61 62 60 61 56 54 54 52 51 50 48 47 46 45 47 47 47 48 52 55 57 59 58 61 63 64 69 72 76 77 88 98 109 121 147 174 190 195 198 201 205 217 237 253 267 270
157 120 99 67 65 62 63 60 55 55 52 50 47 45 44 42 41 43 42 42 44 45 46 48 48 50 54 57 58 62 64 62 63 72 82 97 108 156 194 210 218 217 219 228 241 254 267 270 273
217 193 164 90 72 64 60 60 56 55 53 48 44 41 41 40 39 39 39 39 41 43 45 44 44 44 46 52 54 54 54 53 51 51 48 53 36 265 237 249 246 238 237 240 248 261 274 270 275
205 198 194 194 111 71 59 53 51 54 51 46 39 35 35 38 36 36 37 39 41 42 41 40 40 38 39 43 45 45 42 41 37 31 22 8 343 320 284 269 262 255 254 257 261 266 274 274 273
208 205 212 223 214 103 61 39 37 48 47 41 33 29 29 31 32 33 36 39 40 40 39 37 38 38 38 39 37 34 32 28 18 5 358 349 332 317 299 277 268 266 269 273 275 273 277 282 280
215 215 224 236 241 251 286 4 5 29 31 28 25 24 23 24 25 29 33 36 38 39 39 38 38 37 35 34 29 25 21 15 5 354 340 326 315 306 297 287 278 276 278 277 279 277 278 282 283
222 223 231 239 243 261 265 295 313 329 352 7 17 18 19 19 19 22 27 32 33 34 35 37 35 33 32 32 25 24 16 11 5 353 336 317 306 301 294 293 292 283 280 282 283 281 281 284 288
223 229 234 240 245 247 259 247 282 295 318 338 355 6 9 12 16 22 28 29 26 27 28 30 30 29 29 28 26 23 16 10 7 2 349 325 311 306 297 291 289 286 285 286 285 283 283 286 289
227 232 237 242 246 249 250 244 261 279 296 313 326 345 356 2 12 20 18 18 18 18 19 21 22 23 24 23 23 21 17 13 7 1 356 344 326 315 306 296 293 289 288 287 287 287 289 289 289
227 231 238 242 245 248 249 245 248 260 268 287 301 314 329 340 352 2 6 8 11 10 10 11 12 13 15 16 16 14 12 9 6 1 352 344 330 318 308 302 296 291 288 289 290 291 294 294 292
230 230 231 236 244 249 254 248 252 260 265 273 284 293 305 313 324 337 349 356 358 1 5 7 6 5 9 10 11 11 10 8 6 1 352 345 335 320 311 309 305 299 296 293 292 292 294 295 294
231 231 232 238 243 244 251 253 252 256 261 266 273 279 283 288 296 308 320 334 345 353 357 359 1 3 4 3 3 4 3 2 1 360 354 347 339 329 318 313 310 308 303 296 292 292 292 293 294
231 233 233 233 239 244 253 255 249 253 258 265 268 274 276 280 287 294 299 309 320 331 340 345 350 354 356 355 354 355 355 355 355 354 351 347 342 334 327 320 313 310 306 300 298 298 294 292 294
231 233 234 235 235 239 249 253 253 254 255 259 263 270 273 278 282 288 291 295 302 312 323 331 337 342 347 347 346 348 350 351 349 348 346 342 339 333 327 323 318 312 306 302 301 302 300 298 297
232 233 234 235 239 240 241 250 255 254 254 253 258 262 265 272 279 282 285 287 294 300 309 314 320 328 336 338 337 338 340 342 343 343 343 340 335 331 327 323 319 314 309 305 303 304 303 304 301
Height
5904 5903 5902 5901 5901 5900 5899 5897 5895 5893 5892 5891 5890 5889 5888 5888 5888 5889 5886 5884 5884 5883 5882 5881 5881 5881 5880 5879 5878 5878 5878 5878 5877 5877 5877 5877 5877 5877 5877 5877 5878 5879 5880 5881 5882 5883 5883 5884 5885
5906 5905 5905 5904 5904 5903 5901 5899 5897 5895 5894 5892 5891 5890 5889 5888 5888 5887 5886 5885 5885 5884 5884 5883 5883 5882 5881 5880 5880 5880 5880 5879 5879 5879 5879 5879 5879 5879 5879 5879 5880 5881 5882 5883 5883 5884 5885 5886 5887
5909 5908 5908 5907 5906 5904 5903 5900 5898 5896 5895 5894 5893 5892 5891 5890 5889 5888 5887 5887 5886 5886 5886 5885 5884 5884 5883 5882 5882 5882 5882 5882 5881 5881 5881 5880 5881 5881 5881 5881 5882 5883 5884 5885 5885 5886 5887 5888 5889
5912 5911 5911 5910 5908 5906 5904 5902 5900 5898 5896 5895 5894 5893 5891 5891 5890 5889 5888 5888 5888 5888 5887 5887 5886 5885 5885 5884 5884 5884 5884 5884 5883 5883 5883 5883 5883 5882 5883 5883 5884 5885 5886 5887 5887 5888 5889 5890 5890
5914 5914 5915 5913 5910 5908 5906 5904 5901 5899 5898 5897 5896 5894 5893 5892 5892 5891 5890 5890 5890 5890 5889 5889 5888 5887 5887 5887 5886 5886 5885 5885 5885 5885 5885 5885 5885 5885 5885 5886 5886 5887 5888 5888 5889 5890 5891 5891 5892
5917 5918 5918 5915 5913 5910 5908 5906 5904 5902 5900 5899 5897 5896 5895 5894 5893 5893 5892 5891 5891 5891 5891 5891 5890 5890 5889 5889 5889 5888 5887 5887 5887 5887 5887 5887 5887 5887 5888 5888 5888 5889 5890 5890 5891 5892 5893 5893 5894
5921 5921 5920 5918 5915 5913 5911 5908 5906 5904 5902 5901 5899 5898 5897 5896 5896 5895 5894 5893 5893 5893 5893 5892 5892 5891 5891 5891 5890 5890 5890 5889 5889 5889 5889 5889 5889 5890 5890 5890 5891 5891 5892 5893 5894 5894 5895 5895 5896
5923 5924 5922 5920 5918 5916 5913 5911 5908 5907 5905 5904 5902 5900 5899 5899 5898 5897 5896 5895 5895 5895 5894 5894 5894 5893 5893 5892 5892 5892 5892 5891 5891 5891 5891 5891 5891 5892 5892 5893 5893 5894 5894 5895 5896 5896 5897 5897 5897
5925 5928 5925 5923 5921 5918 5916 5913 5911 5909 5907 5906 5904 5903 5902 5901 5900 5899 5898 5897 5897 5897 5896 5896 5895 5895 5895 5894 5894 5894 5893 5893 5893 5893 5893 5893 5893 5894 5894 5895 5895 5896 5896 5897 5898 5898 5898 5898 5899
5929 5929 5927 5925 5923 5920 5918 5916 5914 5912 5910 5908 5907 5906 5904 5903 5902 5901 5900 5899 5899 5898 5898 5897 5897 5897 5896 5896 5895 5895 5895 5895 5895 5895 5895 5895 5895 5895 5896 5896 5897 5897 5898 5899 5899 5899 5899 5900 5900
5930 5930 5928 5926 5925 5923 5920 5919 5917 5915 5913 5911 5910 5908 5907 5905 5904 5903 5902 5901 5901 5900 5899 5899 5898 5898 5898 5897 5897 5897 5897 5896 5896 5896 5896 5896 5897 5897 5897 5898 5898 5899 5899 5900 5900 5900 5900 5901 5901
5932 5931 5930 5929 5927 5925 5923 5921 5919 5918 5916 5914 5913 5911 5910 5908 5907 5906 5904 5903 5903 5902 5901 5901 5900 5899 5899 5898 5898 5898 5897 5897 5897 5897 5897 5898 5898 5898 5899 5899 5900 5900 5900 5901 5901 5901 5901 5901 5902
5934 5933 5932 5931 5929 5927 5926 5924 5922 5920 5919 5917 5916 5914 5913 5911 5909 5908 5907 5906 5905 5904 5903 5902 5901 5901 5900 5899 5899 5899 5898 5898 5898 5898 5898 5899 5899 5900 5900 5900 5901 5901 5901 5901 5902 5902 5902 5902 5902
5936 5935 5934 5932 5931 5930 5928 5927 5925 5923 5922 5920 5918 5917 5915 5914 5912 5911 5910 5909 5907 5906 5905 5904 5903 5902 5901 5901 5900 5900 5900 5899 5899 5899 5899 5899 5900 5900 5901 5901 5901 5902 5902 5902 5902 5902 5902 5903 5903
5937 5936 5936 5935 5933 5932 5931 5929 5928 5926 5924 5923 5921 5920 5918 5917 5915 5914 5912 5911 5909 5908 5907 5906 5904 5903 5902 5902 5901 5901 5900 5900 5900 5900 5900 5900 5900 5901 5901 5901 5902 5902 5902 5902 5903 5903 5903 5903 5903
5938 5938 5938 5937 5935 5934 5934 5933 5931 5928 5927 5925 5924 5922 5921 5919 5917 5916 5914 5913 5911 5910 5908 5907 5906 5904 5903 5903 5902 5902 5901 5901 5901 5900 5900 5900 5901 5901 5901 5902 5902 5902 5902 5902 5903 5903 5903 5903 5902
5939 5940 5940 5939 5937 5936 5935 5934 5933 5931 5929 5928 5926 5925 5923 5922 5920 5918 5916 5915 5913 5911 5910 5909 5907 5906 5905 5904 5903 5902 5902 5902 5901 5901 5901 5901 5901 5901 5901 5901 5901 5902 5902 5902 5902 5902 5902 5902 5902
5941 5941 5940 5939 5938 5937 5936 5935 5934 5933 5931 5930 5929 5927 5926 5924 5922 5920 5918 5917 5915 5913 5912 5910 5909 5907 5906 5905 5904 5904 5903 5902 5902 5901 5901 5901 5901 5901 5901 5901 5901 5901 5902 5902 5902 5902 5901 5901 5901
5939 5940 5940 5940 5939 5938 5937 5937 5936 5934 5933 5932 5931 5929 5928 5926 5924 5922 5920 5918 5917 5915 5913 5912 5910 5909 5907 5906 5905 5905 5904 5903 5902 5902 5901 5901 5901 5901 5901 5901 5901 5901 5901 5901 5901 5901 5900 5900 5899
5937 5939 5939 5939 5939 5939 5938 5937 5936 5935 5934 5933 5932 5931 5929 5928 5926 5924 5922 5920 5918 5916 5915 5913 5911 5910 5908 5907 5906 5906 5905 5904 5903 5902 5902 5901 5901 5900 5900 5900 5900 5900 5900 5900 5900 5899 5899 5899 5898
5935 5938 5938 5939 5939 5939 5939 5939 5937 5936 5935 5934 5933 5932 5930 5929 5927 5925 5924 5922 5920 5918 5916 5914 5913 5911 5909 5908 5907 5906 5905 5904 5903 5902 5901 5901 5900 5900 5899 5899 5899 5899 5899 5899 5898 5898 5898 5897 5897
5934 5935 5937 5937 5938 5939 5939 5940 5938 5936 5936 5935 5934 5932 5931 5930 5928 5926 5924 5923 5922 5920 5918 5916 5914 5912 5911 5909 5908 5907 5905 5904 5903 5902 5901 5900 5900 5899 5898 5898 5898 5898 5897 5897 5897 5896 5896 5895 5894
5931 5933 5935 5935 5937 5938 5938 5939 5940 5936 5935 5935 5934 5933 5931 5930 5928 5927 5925 5924 5922 5921 5919 5917 5915 5914 5912 5910 5909 5907 5905 5904 5902 5901 5900 5899 5899 5898 5898 5897 5897 5896 5896 5895 5894 5894 5893 5893 5892
5928 5931 5932 5933 5935 5937 5937 5938 5938 5936 5935 5934 5933 5932 5931 5930 5929 5927 5926 5925 5923 5922 5920 5918 5916 5914 5913 5911 5909 5907 5905 5904 5902 5901 5899 5898 5898 5897 5896 5896 5895 5895 5894 5893 5892 5892 5891 5890 5889
5924 5928 5931 5932 5934 5935 5934 5935 5937 5935 5934 5933 5933 5932 5931 5930 5929 5928 5926 5925 5924 5922 5920 5919 5917 5915 5913 5911 5909 5908 5906 5904 5902 5900 5899 5898 5896 5896 5895 5894 5893 5893 5892 5891 5890 5889 5889 5887 5886
5920 5924 5928 5931 5932 5933 5931 5932 5934 5933 5932 5932 5932 5931 5930 5930 5929 5928 5926 5925 5924 5922 5921 5919 5917 5915 5913 5911 5910 5908 5906 5904 5902 5900 5898 5897 5895 5894 5893 5892 5892 5891 5890 5889 5888 5887 5886 5885 5883
5916 5919 5923 5926 5927 5929 5930 5930 5930 5930 5930 5930 5930 5929 5929 5928 5928 5927 5926 5925 5923 5922 5921 5919 5917 5916 5914 5912 5910 5908 5906 5903 5901 5899 5898 5896 5894 5893 5892 5891 5890 5889 5887 5886 5885 5884 5883 5882 5880
5911 5915 5918 5921 5923 5926 5927 5927 5929 5927 5927 5928 5928 5927 5927 5927 5926 5925 5925 5924 5923 5922 5920 5919 5917 5915 5913 5911 5909 5907 5905 5903 5901 5899 5897 5895 5893 5892 5891 5889 5888 5886 5885 5883 5882 5881 5880 5878 5877
5906 5909 5912 5915 5919 5922 5924 5927 5924 5924 5925 5925 5925 5925 5925 5924 5924 5924 5923 5922 5921 5920 5919 5918 5916 5915 5913 5911 5909 5907 5904 5902 5900 5898 5896 5894 5892 5890 5889 5887 5885 5884 5882 5880 5879 5878 5876 5875 5874
5900 5903 5906 5910 5912 5915 5919 5924 5919 5920 5921 5921 5922 5922 5922 5922 5922 5921 5921 5920 5920 5919 5918 5916 5915 5913 5912 5910 5908 5906 5903 5901 5899 5897 5895 5893 5890 5888 5887 5885 5883 5881 5879 5878 5876 5875 5873 5872 5870